GFSCGP_sfc_wetblb_057.txt.gz
Wetbulb
41.86 37.23 34.98 38.58 41.59 42.46 42.09 40.87 40.72 43.90 47.28 45.79 45.31 47.35 49.35 51.93 52.05 52.29 53.77 54.92 56.10 56.51 58.57 59.43 60.55 62.38 63.47 66.21 66.66 65.94 64.25 65.47 66.54 67.26 67.28 67.84 67.61 67.77 68.66 69.57 70.04 70.16 69.73 69.52
37.68 34.18 39.15 41.17 41.04 40.35 40.23 38.98 39.11 42.98 44.88 44.81 45.48 45.90 49.18 49.81 50.45 52.15 52.83 53.66 54.68 55.86 56.61 58.54 60.23 61.83 63.99 65.09 65.52 65.52 65.81 65.44 66.48 67.88 68.36 69.02 68.37 67.94 68.86 69.51 70.06 70.23 69.89 69.77
35.22 37.65 40.38 38.93 38.60 37.92 38.73 37.77 38.98 39.33 42.55 44.81 43.08 42.18 44.97 48.69 49.90 50.93 51.78 52.63 53.24 54.21 54.61 57.44 58.58 60.86 62.77 63.50 65.00 65.30 66.63 66.34 67.05 68.39 68.06 67.87 67.82 67.65 67.53 68.33 68.74 69.60 69.52 69.50
36.64 40.43 37.09 37.23 36.87 38.99 35.32 41.24 40.30 39.67 38.56 35.96 43.15 34.98 43.61 47.04 47.69 49.04 50.31 50.92 51.98 52.87 54.26 56.05 57.78 59.56 61.68 62.25 63.50 65.09 66.96 67.50 67.77 68.42 68.08 68.54 67.84 67.02 68.04 68.31 69.19 69.40 69.84 69.59
35.64 36.34 35.58 35.67 36.98 40.01 37.01 41.18 40.60 40.27 38.92 38.68 38.88 35.92 40.68 45.68 44.48 46.86 49.50 50.47 51.82 53.08 54.68 54.57 55.42 58.17 59.10 61.35 61.51 65.77 68.20 68.28 68.23 68.37 68.81 68.33 68.52 67.63 68.29 68.23 69.27 69.66 69.49 69.60
38.40 41.54 38.42 37.82 40.05 40.63 41.84 39.54 39.29 39.25 37.81 31.25 37.10 36.52 38.17 42.09 44.53 46.56 48.92 50.12 51.41 52.45 53.38 54.17 55.25 56.61 57.77 59.35 63.68 66.96 67.82 68.28 68.04 68.23 68.50 68.84 67.84 67.02 66.78 67.05 66.87 66.86 67.29 67.83
36.66 36.92 40.29 40.04 36.40 38.78 38.45 36.17 29.37 27.62 28.25 28.24 38.36 35.68 38.92 45.47 46.44 46.79 47.72 49.33 51.33 53.03 53.42 54.26 55.08 56.03 58.18 62.07 65.39 66.90 67.59 67.37 67.76 67.75 67.75 68.14 67.91 68.01 67.57 67.02 66.41 66.66 66.41 66.92
28.96 27.18 36.44 39.99 37.54 35.58 35.95 35.82 30.83 23.69 26.79 29.97 36.73 32.78 38.79 45.97 48.07 48.86 49.43 50.22 51.82 52.91 54.91 55.85 56.23 56.27 58.08 62.06 65.26 66.88 67.58 67.33 67.43 67.40 67.31 67.86 68.21 67.25 67.19 67.55 67.00 66.92 67.01 67.49
30.75 30.09 38.93 40.27 41.08 39.46 35.88 32.05 38.64 32.11 33.60 31.53 34.49 38.08 42.86 45.43 46.32 48.08 48.00 49.83 50.96 53.55 56.01 58.37 59.50 57.49 60.62 63.97 66.17 67.55 67.72 67.36 67.50 67.21 67.24 67.19 67.36 67.28 66.83 67.44 68.02 67.00 67.86 67.14
35.66 29.60 36.62 37.79 40.77 40.33 38.15 40.34 31.44 32.97 25.68 25.59 32.45 34.37 37.07 41.81 43.89 46.30 47.29 48.37 50.84 55.03 58.53 60.33 60.00 58.88 63.16 65.47 67.29 67.85 67.74 67.02 66.78 66.73 66.67 66.35 66.90 67.30 67.43 67.46 66.93 67.04 67.17 67.09
38.00 33.68 33.11 37.01 33.55 33.61 36.40 34.73 35.61 35.77 34.24 29.20 29.44 34.21 43.96 43.81 45.49 45.21 46.91 48.76 50.37 53.43 58.59 60.71 60.73 61.41 63.88 66.07 66.96 67.07 66.75 65.82 65.72 66.25 66.46 66.44 66.31 66.77 67.00 67.02 67.02 67.23 67.52 66.80
37.88 34.90 29.64 32.39 38.75 39.81 37.97 35.44 34.52 31.10 30.42 33.47 32.94 33.42 44.86 45.77 45.73 47.05 47.37 48.98 50.84 53.39 58.08 60.81 59.55 60.02 63.31 65.39 66.20 66.18 66.03 65.42 65.79 66.05 66.00 65.98 66.20 66.34 66.38 66.06 66.65 67.00 67.05 67.11
38.45 33.04 26.82 29.73 35.56 38.02 35.12 36.37 36.62 36.24 35.81 32.11 30.06 33.27 44.89 45.68 46.26 47.64 47.44 48.81 50.54 52.79 56.42 60.46 59.48 60.08 61.36 64.62 65.58 65.31 65.34 65.14 65.52 65.54 65.41 65.63 65.65 65.67 65.82 66.24 66.60 66.47 66.51 66.46
41.18 34.50 30.65 25.91 29.83 34.35 31.95 34.41 36.20 35.28 31.53 32.58 33.46 36.08 40.87 43.40 44.31 46.27 47.61 49.66 50.96 52.43 56.12 60.49 59.70 60.26 61.52 64.53 64.73 64.64 64.76 65.09 64.88 64.56 64.45 64.84 65.05 65.41 65.93 66.53 66.55 66.17 66.30 65.96
38.13 31.30 33.29 33.64 34.26 34.23 33.36 33.32 34.68 33.31 34.73 31.34 34.66 35.94 40.21 43.36 44.32 45.98 48.17 50.09 50.60 52.19 54.94 59.05 60.13 60.34 62.71 64.14 64.47 64.64 64.52 64.40 64.36 63.61 64.30 64.74 65.22 65.46 65.63 65.83 66.00 66.27 65.67 65.72
38.49 31.80 33.74 30.87 33.56 33.47 31.53 34.25 34.76 35.37 35.82 35.52 35.90 35.47 42.75 44.20 45.29 45.79 47.56 49.72 50.53 52.71 55.63 59.00 61.90 62.05 63.09 63.88 64.21 64.08 63.80 63.83 64.14 64.02 64.08 64.70 64.90 64.88 65.07 65.47 65.40 65.81 65.72 65.46
35.20 33.65 30.64 25.77 32.14 32.86 28.94 34.22 35.23 36.41 38.13 37.53 33.64 38.64 42.93 42.22 43.84 46.03 49.11 50.62 51.08 52.91 56.07 59.19 61.62 63.26 64.10 64.28 64.72 63.85 63.89 64.10 63.61 64.01 64.31 64.19 64.49 64.38 64.76 65.07 64.95 65.22 65.42 65.81
33.67 32.82 31.90 26.57 30.00 21.63 34.10 41.21 40.03 38.48 39.93 42.18 42.16 41.36 42.90 43.86 46.52 49.85 51.04 50.76 51.94 54.86 57.62 60.26 62.37 63.94 64.95 65.21 65.01 65.01 64.18 63.61 63.16 63.98 63.98 64.00 63.98 63.99 64.62 64.81 64.64 64.82 65.08 65.25
36.37 33.64 29.07 26.28 27.29 31.33 33.76 35.17 35.04 34.24 34.81 42.86 42.02 42.91 44.57 46.50 48.54 47.87 51.33 54.57 54.04 55.16 58.31 61.20 63.67 64.87 65.37 65.04 65.27 64.53 63.52 63.08 63.31 63.46 63.85 64.09 63.75 63.85 64.23 64.26 64.50 64.33 64.22 63.98
36.52 33.77 31.55 29.87 25.19 23.27 33.89 37.30 38.29 37.47 31.35 43.20 43.72 44.07 45.98 46.68 39.78 46.08 53.61 52.93 53.76 55.48 59.95 62.43 64.13 65.15 65.06 65.06 64.98 63.96 62.85 62.62 62.59 63.73 64.14 64.58 64.17 64.21 64.18 64.61 64.41 64.61 64.08 63.83
33.99 33.03 28.21 28.75 28.37 32.21 37.93 39.06 38.17 30.21 33.27 39.26 43.93 43.96 44.91 43.81 45.62 49.69 51.86 52.76 54.47 56.59 60.16 63.85 64.30 64.19 64.84 65.03 64.96 63.33 62.77 62.30 63.76 64.69 64.96 65.12 64.78 64.74 65.19 64.79 64.57 64.37 63.62 63.32
32.41 31.56 31.76 31.33 29.77 27.47 40.09 38.15 32.47 36.51 39.91 41.70 44.28 44.83 44.01 47.08 48.43 50.90 52.19 52.97 54.41 58.02 61.05 63.35 63.56 63.94 64.94 65.02 64.87 63.12 62.53 63.92 64.51 64.94 64.75 64.73 65.03 64.25 64.33 63.62 64.16 63.84 63.44 62.14
32.47 35.57 32.30 32.11 32.83 39.51 41.60 41.41 41.66 42.06 42.27 44.12 43.37 44.86 46.53 46.72 48.52 49.63 51.71 53.32 55.42 58.82 61.66 63.75 63.69 63.70 63.74 64.85 65.39 63.39 63.59 64.43 64.43 64.44 64.72 64.28 64.39 64.40 64.67 62.79 63.46 62.54 62.86 61.99
38.28 40.84 36.40 36.43 39.02 40.24 42.15 44.15 44.68 45.04 44.91 45.99 45.38 45.80 46.92 46.76 49.03 48.61 51.61 54.49 57.92 60.66 62.27 63.73 63.35 62.50 62.43 64.38 65.09 65.38 64.59 64.36 64.23 64.09 64.58 64.59 64.17 63.57 64.26 64.01 63.00 62.37 62.07 60.66
39.59 40.44 38.09 37.64 40.28 41.96 42.61 43.47 44.21 44.77 46.12 45.97 46.41 46.77 47.42 48.31 47.92 48.87 49.74 53.36 59.37 61.80 62.65 62.39 62.69 62.69 62.56 64.01 64.49 65.49 64.40 64.14 63.74 64.34 64.32 64.46 64.28 63.97 63.62 63.71 62.65 62.55 63.78 59.88
41.85 39.64 36.89 35.49 41.70 41.53 41.94 44.46 45.08 44.61 45.03 46.27 45.62 46.32 49.20 48.98 48.78 49.44 50.90 56.99 60.89 61.66 62.27 61.44 61.64 62.73 62.78 63.31 63.53 63.35 63.61 63.85 64.25 63.68 63.61 63.95 63.83 63.84 63.27 60.86 58.36 42.66 46.59 45.91

GFSCGP_sfc_wetblb_060.txt.gz
Wetbulb
45.99 41.80 39.65 41.42 42.94 42.23 42.79 43.16 43.89 46.65 49.54 49.23 49.23 49.07 51.27 54.00 54.18 55.53 56.91 58.03 58.96 59.68 61.72 62.98 63.63 64.50 64.86 66.67 70.09 71.68 70.95 72.71 70.77 70.08 70.04 70.60 70.37 71.52 71.92 72.63 73.35 73.35 73.05 72.88
42.00 39.00 42.90 43.67 42.84 41.20 41.35 41.08 42.17 46.28 47.54 48.40 48.19 48.46 51.47 53.25 53.79 55.62 56.37 57.13 58.09 59.23 60.45 61.50 62.50 63.10 64.44 66.50 67.96 69.38 69.89 71.35 71.26 70.80 71.64 71.90 71.88 72.21 72.45 72.70 73.19 73.52 72.83 72.94
38.83 41.25 43.99 41.77 40.64 39.11 40.16 39.70 40.97 42.20 46.19 48.27 47.21 46.10 48.91 52.46 54.39 55.35 56.09 56.93 57.35 57.60 58.09 59.42 60.07 61.90 63.58 64.69 66.94 68.11 69.64 70.84 71.99 72.04 72.01 72.14 72.60 71.59 71.29 71.73 72.05 72.68 73.02 72.83
40.49 43.06 41.47 40.64 38.94 40.08 36.46 41.84 41.64 41.68 42.03 39.03 46.93 38.29 46.80 49.92 50.99 52.91 54.41 55.67 56.25 56.87 57.95 58.51 59.38 60.63 62.39 63.47 64.68 67.29 68.97 70.94 71.54 72.16 72.16 72.00 70.18 69.43 70.65 71.45 72.41 72.50 72.93 72.35
39.88 40.41 39.57 38.45 39.03 41.46 38.45 42.60 41.47 42.48 40.86 41.49 42.00 40.88 44.68 48.94 48.37 50.90 53.41 54.56 55.53 55.88 56.91 57.27 58.15 59.40 60.53 62.03 62.95 66.71 67.95 70.66 71.95 72.12 71.92 70.88 72.15 71.54 71.94 71.88 72.50 72.92 72.83 72.58
42.80 45.93 43.49 41.41 41.99 41.88 43.07 40.88 41.20 41.47 40.89 35.61 39.94 40.05 41.23 44.89 47.78 50.07 52.52 53.14 53.74 54.97 56.06 57.43 58.90 60.05 60.22 61.09 62.03 64.19 67.87 71.13 72.26 71.84 71.71 72.30 72.70 72.18 71.18 71.70 71.42 71.60 72.11 72.27
40.40 40.82 43.66 43.89 38.48 42.01 40.69 37.23 30.14 29.77 30.65 32.11 42.01 39.91 42.48 48.17 49.57 50.68 51.37 52.05 53.20 55.07 55.89 57.60 58.57 59.95 60.35 61.14 62.76 66.37 69.20 70.74 71.87 71.90 71.92 72.39 72.79 72.93 72.63 72.33 71.21 71.00 69.76 69.57
33.52 31.87 39.60 42.88 39.93 38.08 38.20 36.75 31.59 25.28 29.37 33.27 40.57 36.14 42.09 48.86 50.98 52.17 52.32 53.24 53.64 56.21 58.44 59.82 62.09 63.80 60.64 61.48 64.46 68.07 69.71 70.64 71.40 71.56 72.03 72.72 73.07 71.94 71.52 71.53 70.55 69.79 69.07 69.59
32.91 33.00 41.83 42.32 42.75 41.73 38.11 34.21 39.74 33.92 35.87 34.76 38.40 41.53 45.50 48.34 48.93 50.60 50.20 51.77 53.00 56.38 60.14 62.73 64.62 64.86 63.36 62.60 66.23 68.47 70.08 70.86 71.14 71.42 71.57 71.76 71.81 71.74 70.96 71.54 71.51 69.80 71.01 70.42
37.92 31.01 39.41 40.15 42.99 42.76 40.32 40.87 32.44 34.79 26.52 27.39 35.47 38.33 39.32 44.57 46.08 48.85 50.30 51.27 53.21 55.87 58.17 61.65 64.78 64.65 63.89 66.64 68.69 70.39 71.26 70.90 71.10 71.31 71.28 71.13 71.19 71.00 71.08 71.00 70.17 70.45 70.59 70.23
39.69 35.53 35.85 40.00 37.07 35.23 37.73 36.61 36.89 36.66 35.20 29.29 31.85 36.98 46.55 46.74 48.68 49.41 50.03 51.38 53.21 54.48 56.88 60.61 64.32 64.52 66.20 68.11 69.36 70.42 70.85 70.45 70.33 70.77 70.43 70.06 69.67 70.18 70.23 70.07 70.10 70.02 70.08 69.61
41.04 37.17 32.65 35.66 40.55 41.69 39.48 35.67 34.89 32.24 32.17 35.66 35.69 38.43 48.90 49.69 50.18 50.46 50.24 51.94 53.45 54.79 56.21 60.87 64.32 62.73 66.56 67.99 69.45 69.78 70.02 69.83 70.01 69.80 69.54 69.34 69.50 69.53 69.34 69.26 69.31 69.58 68.72 68.92
41.05 36.21 30.80 33.22 38.01 41.10 37.38 38.28 39.56 39.25 38.19 32.60 33.55 37.58 48.52 48.91 48.75 49.45 50.42 51.70 52.95 54.19 55.17 58.37 63.91 61.87 65.15 67.84 68.75 69.07 69.15 69.06 69.07 68.94 68.77 68.68 68.34 68.18 68.04 68.18 68.56 68.65 68.52 68.24
41.28 37.18 32.79 29.65 33.67 37.27 34.14 36.69 39.22 38.31 33.68 34.73 36.39 39.61 44.52 46.88 47.09 48.90 50.43 51.70 51.87 53.28 54.42 57.05 62.15 62.35 63.42 67.28 68.21 68.23 68.51 68.66 68.26 68.16 67.83 67.09 66.66 67.48 68.02 68.40 68.37 68.23 68.16 67.52
38.70 33.71 36.55 37.27 37.99 37.67 36.46 36.16 37.29 36.75 37.76 34.00 37.42 38.84 43.10 45.89 47.11 48.51 50.12 50.15 50.20 52.18 53.87 56.02 60.16 63.15 64.35 66.12 67.61 68.08 67.87 67.87 68.14 66.95 65.92 65.98 67.61 68.06 68.14 68.04 68.12 68.14 67.71 67.36
40.85 32.45 36.34 34.14 37.51 37.47 35.22 37.23 37.80 37.96 38.20 38.60 39.14 38.89 45.11 46.66 47.31 47.06 48.04 48.75 50.20 52.61 53.94 55.79 59.76 63.91 64.34 65.43 66.67 66.73 67.04 67.14 67.12 65.54 65.19 66.25 66.66 67.10 67.21 67.46 67.21 67.64 67.07 66.83
36.40 35.09 33.04 30.20 35.74 34.93 31.74 37.22 38.42 39.17 40.67 40.32 36.88 41.74 45.50 45.14 46.09 47.45 48.41 49.15 50.21 52.93 54.52 56.36 60.21 64.35 64.72 66.92 65.87 64.71 66.74 67.16 65.85 64.80 65.15 65.77 66.32 66.14 66.50 66.77 66.64 66.78 66.87 67.16
35.04 34.29 33.82 28.66 30.98 22.52 35.72 41.49 40.50 38.15 40.22 43.08 42.78 44.48 46.66 47.48 48.33 48.92 50.04 50.85 52.35 53.78 56.29 60.09 62.59 65.62 65.72 66.74 66.55 67.15 67.18 66.05 64.54 64.41 64.80 65.37 65.33 65.47 66.10 66.29 66.22 66.90 67.44 66.87
37.28 34.79 31.94 29.21 29.07 33.40 36.04 38.00 35.77 34.54 36.00 42.56 42.93 45.03 48.05 49.08 49.69 48.64 51.53 53.14 55.20 57.48 59.26 61.23 63.83 66.63 66.23 66.11 67.46 66.86 66.10 64.42 63.69 64.21 64.50 64.52 64.89 65.32 65.70 65.70 66.10 66.81 67.00 66.68
38.22 34.15 32.77 32.30 27.44 25.94 36.31 39.15 40.12 37.19 31.23 40.04 41.78 45.72 46.97 48.82 44.43 47.81 54.36 56.35 57.04 59.03 60.56 61.79 64.68 66.82 65.62 66.28 67.18 66.40 64.97 63.14 63.63 64.48 64.87 64.72 64.65 65.86 65.56 66.41 66.58 66.95 66.91 66.14
35.66 34.09 29.74 30.99 30.05 34.75 39.10 40.43 39.85 30.92 33.47 39.54 41.61 42.45 45.39 44.11 47.73 52.19 54.26 55.03 57.64 58.97 60.76 63.36 64.99 65.92 65.26 66.93 67.55 65.58 64.12 63.11 64.71 65.54 65.48 65.04 65.71 65.71 66.41 66.59 66.81 66.72 66.22 64.91
34.08 32.46 33.39 34.18 31.60 28.46 42.65 39.67 33.56 39.08 42.14 42.35 42.43 45.02 44.09 46.72 49.00 50.75 53.83 55.67 57.65 59.36 61.27 64.35 64.26 64.84 66.05 67.34 66.92 65.32 63.32 64.47 65.54 65.50 64.68 65.10 66.29 65.93 66.31 66.60 66.37 66.19 65.75 64.61
34.71 37.29 34.15 34.69 34.39 43.42 43.67 42.53 44.98 44.23 42.75 43.95 45.09 46.16 48.07 45.75 47.78 51.29 54.26 55.54 58.20 60.50 62.46 64.68 64.38 65.14 66.17 67.59 66.85 64.68 64.05 64.75 65.46 65.29 64.37 65.58 66.50 66.32 66.92 66.48 65.66 64.98 65.35 63.38
40.68 43.20 37.57 38.47 41.05 42.34 43.84 45.41 45.15 45.39 44.66 45.80 46.30 46.45 47.60 47.09 49.85 51.94 54.39 56.15 58.23 60.67 63.53 64.38 64.63 65.03 65.69 67.11 66.86 65.80 64.62 65.14 65.47 65.09 64.54 65.86 66.08 65.76 66.72 66.43 65.73 64.29 63.91 62.32
42.57 43.25 39.82 39.59 41.92 43.02 43.95 44.98 44.97 44.17 45.42 46.45 47.17 47.45 46.85 46.92 49.76 52.80 54.29 55.42 57.11 58.57 64.07 64.70 64.81 65.83 66.35 67.10 67.23 65.29 64.75 65.60 65.27 65.23 64.76 65.41 66.16 66.25 66.35 66.34 64.45 64.47 64.59 62.27
44.56 41.98 39.16 37.43 42.61 42.67 42.87 46.09 45.76 42.89 43.86 46.96 45.81 45.76 47.23 49.59 51.07 50.61 51.62 53.74 56.14 60.91 64.06 64.78 65.40 66.59 66.67 66.89 66.39 64.62 64.85 65.40 65.56 64.78 64.62 64.84 65.61 66.35 66.10 65.02 63.73 42.49 44.60 45.73

GFSCGP_sfc_wetblb_063.txt.gz
Wetbulb
47.48 43.42 41.80 44.16 45.34 44.77 43.57 41.80 41.35 45.33 49.06 48.72 48.34 49.80 51.48 54.59 54.36 55.52 57.51 58.51 59.56 60.58 62.39 63.90 65.24 66.53 67.23 70.29 72.26 72.92 72.34 75.78 73.97 71.11 69.84 70.34 70.75 72.73 72.70 73.29 75.10 74.36 74.28 73.88
44.33 41.41 44.69 45.58 44.87 43.22 42.70 41.27 41.24 44.05 46.32 47.91 48.61 48.20 51.26 53.77 54.37 54.85 56.06 57.84 59.05 60.30 61.76 63.09 64.95 67.45 67.94 69.63 70.79 72.00 73.47 74.41 75.60 71.84 72.70 72.65 73.44 72.64 73.12 73.43 74.85 74.63 73.95 73.86
41.55 43.14 45.74 43.83 43.09 41.60 41.66 40.46 40.80 40.96 44.64 46.94 46.91 45.81 48.58 52.13 54.40 55.58 56.16 57.68 58.75 59.62 60.18 61.81 62.81 65.51 66.30 67.49 69.81 70.67 73.02 74.32 75.01 75.13 74.08 74.32 74.41 74.54 72.65 73.17 73.19 73.79 73.71 73.75
43.04 45.59 43.78 41.83 41.19 42.41 38.42 43.00 42.04 41.25 40.65 37.81 46.23 38.78 46.74 49.94 51.24 53.33 54.93 56.27 57.66 59.12 60.25 61.13 61.58 64.26 65.79 65.66 67.58 70.34 71.99 73.46 74.33 76.34 73.16 76.09 72.11 71.00 71.59 72.76 73.26 73.48 73.73 73.43
40.96 42.40 42.18 41.83 41.37 43.18 40.12 43.22 41.96 41.38 39.97 40.18 41.06 39.91 44.81 49.59 48.61 51.65 54.01 55.59 57.22 58.68 59.61 59.94 60.59 61.71 62.68 64.95 66.61 69.01 71.22 72.78 74.45 75.47 74.67 73.07 73.67 72.04 72.37 72.51 74.65 75.42 73.84 73.76
42.98 47.04 45.55 44.10 45.29 44.17 44.39 41.53 41.45 41.25 39.98 34.22 39.40 39.65 41.63 45.74 49.42 51.49 54.07 55.65 56.67 57.39 58.65 59.52 60.31 61.90 62.62 62.08 63.49 67.50 69.95 71.69 73.91 74.26 73.26 75.70 75.09 75.42 72.05 73.34 72.01 71.85 71.74 72.37
41.26 41.92 45.77 45.44 42.39 44.98 41.93 39.18 31.63 29.55 31.13 31.38 40.72 39.47 42.14 48.34 50.41 51.90 52.40 54.20 55.97 57.02 57.06 57.73 58.62 59.32 60.92 61.98 63.34 64.36 67.94 69.64 72.81 72.65 72.77 72.95 75.55 76.58 76.62 74.00 72.29 72.60 71.15 71.44
34.40 33.07 41.47 45.04 42.28 40.22 40.51 38.49 31.25 24.19 26.99 32.31 40.64 34.77 42.09 49.05 51.40 52.99 53.46 55.09 55.86 55.52 57.54 58.54 59.64 61.35 62.75 63.41 63.55 63.55 65.45 69.27 71.97 72.32 72.59 73.58 74.61 73.15 73.57 74.76 73.08 72.11 71.42 71.94
34.98 34.82 42.80 43.87 45.52 43.81 39.83 36.91 41.62 34.25 34.86 29.30 33.50 40.86 46.70 49.83 49.85 51.69 52.45 53.55 54.35 55.70 58.86 60.49 62.94 64.72 65.43 64.13 64.06 66.59 68.77 70.50 71.91 72.57 73.19 73.81 74.47 75.55 74.07 75.56 75.31 71.83 73.80 71.44
39.87 33.14 40.83 42.75 45.48 44.01 41.94 43.38 33.22 36.67 27.28 24.79 33.39 36.78 39.10 45.63 47.72 50.49 51.92 52.76 54.04 55.99 57.42 59.57 63.43 66.00 66.86 65.08 65.36 68.11 69.76 71.09 72.04 72.82 73.25 73.21 73.49 73.12 72.87 72.84 73.16 72.74 72.34 70.91
41.47 37.86 37.51 41.49 39.83 38.97 39.54 38.46 39.49 38.02 35.04 28.82 26.66 34.80 46.30 47.41 48.83 50.57 52.51 53.66 54.06 55.05 56.76 60.21 65.03 65.80 67.13 66.90 67.76 69.23 70.60 71.41 71.81 72.13 72.46 72.46 72.00 72.14 71.95 71.15 70.89 70.82 70.83 70.12
42.22 38.96 34.04 36.62 42.29 44.09 41.81 40.06 38.71 32.02 31.11 37.14 35.23 34.95 46.15 49.68 51.45 51.53 52.55 53.15 54.26 55.81 56.87 58.99 65.39 64.86 66.89 67.95 69.45 70.45 71.09 71.12 71.54 72.10 71.73 71.15 70.95 70.82 70.58 70.15 69.98 70.24 69.65 69.45
41.25 37.06 31.14 33.40 38.24 39.84 36.16 38.94 40.45 39.21 38.42 33.51 29.99 34.62 47.61 50.82 51.86 52.66 52.34 52.81 53.15 54.37 55.95 58.01 64.74 65.07 67.25 68.47 69.42 70.21 70.66 70.91 71.23 70.73 70.24 70.06 70.00 69.89 69.42 69.37 69.54 69.12 68.70 68.47
42.68 38.24 32.66 29.89 34.57 34.99 32.93 37.22 39.46 39.60 34.29 33.71 36.30 37.01 39.86 43.05 49.55 50.51 51.07 52.12 53.34 53.04 55.13 57.10 61.22 65.40 67.16 68.40 68.94 69.45 70.04 70.57 70.23 69.75 69.25 69.01 68.94 68.71 68.20 68.70 68.70 68.88 68.33 68.07
40.26 34.60 36.93 38.13 39.46 38.93 38.20 37.87 38.50 37.33 38.89 33.30 37.58 37.68 40.98 41.78 43.17 49.30 50.77 50.97 51.35 51.82 54.48 56.21 58.79 65.26 66.60 66.86 68.56 69.15 69.37 69.43 69.44 68.47 68.08 67.56 67.64 68.11 68.32 68.26 68.36 68.48 67.50 67.27
40.95 34.59 37.72 34.81 38.37 38.72 36.85 38.79 39.39 39.31 39.46 39.35 39.87 38.70 44.46 46.23 48.24 48.50 49.12 49.87 50.13 51.56 53.83 55.79 57.88 64.99 65.54 65.14 67.00 68.45 68.34 68.58 68.88 67.56 66.22 66.84 67.13 67.47 67.92 68.09 67.88 68.28 67.30 67.18
36.99 35.78 35.18 31.07 37.54 36.11 32.49 37.36 38.92 40.40 41.67 40.67 37.01 42.26 45.71 45.83 46.96 48.11 49.32 50.33 50.60 51.53 54.45 55.65 58.95 62.42 65.98 65.65 67.52 66.98 67.95 68.46 67.25 66.26 65.97 66.09 66.76 66.51 67.01 67.37 66.96 66.72 67.99 67.50
36.46 35.84 35.53 30.71 34.04 25.13 36.49 42.23 40.25 39.29 41.04 43.79 44.28 45.93 47.16 47.70 49.24 50.38 51.60 50.96 51.48 53.31 55.02 58.75 61.24 62.66 67.23 66.66 66.68 67.64 68.07 67.24 66.13 65.57 65.24 65.85 65.92 66.00 66.36 66.59 66.93 67.04 68.03 67.47
41.50 35.42 33.36 30.65 30.07 33.82 36.00 37.63 35.78 35.59 36.10 41.83 41.53 45.25 47.93 47.74 48.58 50.07 52.87 52.62 52.98 56.10 58.99 60.34 62.64 64.98 67.19 65.79 67.15 67.89 67.17 66.24 65.16 64.52 65.02 65.33 65.70 65.60 65.67 65.52 65.91 67.78 67.51 67.41
41.86 37.08 33.98 32.55 28.40 26.59 34.84 40.51 42.17 39.17 30.61 41.03 40.79 41.30 43.11 45.04 43.73 47.30 54.98 56.32 56.99 58.06 59.58 60.81 62.86 62.97 67.61 66.21 67.21 67.64 66.19 65.19 64.39 64.72 64.84 65.61 65.81 65.66 65.31 66.79 67.02 67.86 67.85 67.17
36.97 33.73 31.06 32.23 30.70 33.94 39.51 43.01 42.07 30.97 35.79 42.08 43.24 43.24 43.87 44.04 48.21 51.11 53.87 54.86 56.71 58.15 59.88 62.12 63.27 62.94 67.93 67.32 67.11 66.75 65.52 64.02 65.15 65.44 65.32 65.08 65.96 66.47 66.48 67.34 67.42 67.38 66.78 66.24
35.92 34.81 34.16 34.02 31.67 29.04 44.41 41.99 35.30 40.86 44.27 44.42 46.15 45.31 46.51 46.80 49.66 50.49 52.61 53.87 56.21 58.33 60.66 62.87 62.44 63.87 67.66 67.26 67.56 66.42 64.49 65.27 65.67 65.62 65.00 65.01 66.03 65.50 65.22 66.25 66.75 66.65 66.13 65.34
37.09 39.31 37.27 37.57 37.63 45.50 47.13 45.43 47.62 46.35 44.88 44.41 44.86 46.07 46.57 46.56 47.90 50.33 51.53 53.97 57.11 58.78 59.70 62.85 63.81 65.91 65.96 66.73 67.74 65.85 64.93 65.33 65.35 65.27 64.92 64.94 65.64 66.07 66.41 66.09 66.02 64.95 66.15 64.53
42.78 45.29 40.85 40.36 42.65 44.40 45.15 47.10 47.87 47.60 45.26 45.33 44.92 45.94 47.05 45.86 48.24 49.78 51.12 53.34 56.56 58.30 59.83 60.88 63.12 65.22 64.56 66.16 67.82 66.67 65.23 65.50 65.33 64.66 64.91 65.41 65.03 65.31 65.88 65.52 65.08 64.21 64.37 64.11
43.50 44.42 41.85 41.65 43.83 44.72 45.39 45.99 46.75 46.59 46.35 44.84 46.12 46.52 46.81 48.67 50.10 49.92 51.92 55.48 57.39 59.47 61.54 61.02 63.50 65.89 64.61 66.39 67.32 66.57 64.87 65.53 65.19 64.68 64.85 65.20 64.68 65.32 65.14 59.13 58.42 64.51 63.76 60.97
46.30 43.35 41.10 39.60 44.32 43.40 44.04 46.45 47.87 46.54 44.62 45.32 46.13 47.10 48.14 48.63 49.37 51.06 54.76 56.55 55.81 57.00 61.13 61.61 63.97 64.52 65.55 66.72 66.71 65.47 64.82 65.83 65.50 64.43 64.22 64.36 64.26 64.53 64.28 65.19 63.52 43.28 44.48 43.43

GFSCGP_sfc_wetblb_069.txt.gz
Wetbulb
43.38 37.08 34.15 38.19 40.11 41.10 40.03 38.42 37.42 40.79 43.97 41.25 40.12 40.96 43.45 45.77 45.78 45.99 49.93 51.48 54.29 55.39 57.77 58.87 59.64 60.45 62.77 64.81 64.68 65.01 65.43 67.38 68.12 68.04 66.05 65.44 64.83 65.24 66.99 68.32 70.04 69.41 71.72 71.50
38.73 34.88 41.49 43.89 43.07 41.25 39.66 37.11 36.62 40.54 43.31 41.72 40.07 39.74 42.79 44.45 44.90 46.02 46.89 49.73 52.81 55.17 56.14 57.38 58.31 59.31 60.59 64.27 64.78 64.63 64.73 65.29 66.01 66.31 66.69 65.42 65.07 65.68 66.31 68.48 68.92 70.64 71.06 71.45
35.89 39.81 44.36 42.49 40.51 39.46 38.33 36.47 36.80 36.98 40.95 41.69 39.49 37.25 39.88 43.59 45.22 46.56 47.73 48.77 51.64 54.44 55.30 56.58 57.59 57.84 62.54 64.76 65.15 65.44 65.95 65.90 65.67 66.60 67.46 66.89 66.46 67.11 68.15 67.56 68.04 70.59 70.98 71.51
37.69 42.21 42.04 40.40 39.37 40.46 35.54 42.13 41.48 39.81 36.09 30.48 38.99 28.92 36.62 40.70 41.80 43.75 45.99 47.69 48.86 51.42 54.86 55.87 56.76 57.65 61.62 64.76 65.57 65.82 65.90 65.17 65.75 65.16 66.46 66.79 66.64 65.29 66.02 67.71 69.47 70.51 71.10 70.95
36.39 38.22 38.62 38.12 39.29 42.76 38.29 42.54 40.49 39.63 35.85 31.42 33.81 29.28 34.59 38.94 38.88 41.51 44.08 46.53 48.84 50.77 52.97 54.93 55.30 56.45 58.53 63.22 62.84 63.02 63.80 64.64 66.24 67.11 67.93 66.35 65.36 66.77 67.23 68.48 69.31 69.19 69.50 70.11
39.16 43.33 42.07 41.49 43.45 43.00 43.08 39.47 38.59 37.18 32.21 26.39 32.32 31.58 32.25 35.62 38.15 41.36 44.12 45.95 47.93 50.38 51.56 54.64 55.08 55.61 56.42 61.06 62.70 62.76 62.71 64.31 65.43 66.97 67.59 66.06 64.73 66.47 67.50 67.74 69.07 69.10 68.92 68.80
37.86 38.67 42.88 44.24 38.62 40.72 38.19 32.70 25.19 23.62 23.11 24.40 35.09 32.37 33.79 39.04 42.53 43.86 44.05 45.97 47.59 48.48 49.36 52.17 55.23 55.33 55.68 57.08 57.24 60.88 60.77 61.99 64.96 66.26 67.25 67.04 66.35 67.04 67.12 68.22 68.97 68.54 67.70 66.98
29.21 27.15 37.96 43.74 39.14 34.66 35.38 34.30 28.32 21.05 21.19 25.77 35.22 28.02 33.66 42.07 44.39 45.60 46.61 47.10 47.95 48.74 49.94 51.92 53.98 55.09 54.80 56.41 56.93 57.82 58.88 59.35 63.59 65.23 66.81 68.02 68.86 68.79 68.69 69.38 69.16 68.87 68.29 67.89
30.32 31.68 41.23 41.74 41.86 40.47 34.63 30.44 36.39 29.26 31.03 24.25 28.67 34.08 39.55 43.00 44.35 45.07 44.91 46.11 46.19 47.68 50.84 53.32 52.72 52.88 53.62 54.44 55.45 55.78 56.48 61.39 64.24 65.71 68.44 67.29 68.35 68.94 69.72 69.18 69.38 68.81 67.92 68.22
35.69 28.68 38.29 40.28 41.97 41.04 37.54 39.07 28.18 28.50 20.92 20.50 27.04 29.58 30.99 38.28 40.04 41.96 42.18 42.67 45.30 47.31 50.40 52.67 53.38 55.21 60.46 61.37 61.80 61.93 58.90 63.17 64.88 67.12 69.01 68.72 68.68 69.99 70.29 70.46 69.28 68.66 68.21 68.73
36.67 32.25 33.58 37.45 34.64 34.39 33.47 31.94 33.62 34.11 31.72 24.76 21.89 26.86 40.54 39.05 40.31 40.34 41.56 43.86 45.18 47.15 49.59 52.00 52.79 59.22 60.89 61.08 61.23 61.32 60.78 61.69 64.90 68.08 68.33 68.70 69.60 70.43 70.35 69.83 69.04 69.31 69.27 69.06
38.04 32.68 27.51 32.15 38.40 40.83 39.43 35.42 33.49 29.06 27.38 29.94 28.11 28.92 42.11 41.36 41.73 43.04 42.50 44.51 47.10 49.39 48.62 52.15 59.24 60.46 60.80 60.79 60.85 61.45 63.96 66.96 68.18 69.05 69.16 69.63 69.38 69.49 68.87 67.54 67.25 67.94 67.83 68.00
37.85 30.88 26.03 27.76 32.18 36.86 34.73 35.71 35.72 32.97 31.01 27.73 25.88 28.71 42.56 42.38 42.01 43.35 43.58 45.40 46.93 48.80 49.14 50.14 53.70 59.53 59.61 60.53 61.69 63.51 67.03 67.90 68.75 69.16 68.61 68.88 69.13 67.93 66.74 66.11 65.65 65.95 65.39 64.76
41.53 33.42 29.77 25.44 29.39 33.81 32.16 35.00 36.53 32.96 27.88 29.05 30.55 32.97 38.05 39.99 40.91 42.64 42.98 44.71 45.83 46.27 47.91 49.34 51.68 57.90 60.18 63.09 63.27 66.46 66.97 68.49 68.70 68.55 68.14 67.83 67.89 66.93 65.76 65.09 64.27 64.91 64.51 63.76
37.66 31.49 34.21 34.97 36.56 36.39 35.33 35.40 36.38 34.26 33.96 29.76 34.09 33.77 37.66 39.55 41.10 43.23 44.76 45.47 45.63 46.22 47.54 49.87 50.77 53.90 60.77 62.51 63.81 66.71 67.74 68.23 67.88 68.00 67.51 67.05 66.90 65.90 65.32 64.60 64.53 64.15 63.44 63.11
39.21 33.40 34.98 32.28 36.14 36.39 34.43 37.04 37.43 37.31 37.29 36.42 35.81 35.32 41.54 43.64 44.88 43.95 44.71 45.95 46.39 47.81 50.32 49.50 56.93 57.93 60.44 62.59 64.60 65.06 66.29 66.88 67.40 67.08 66.62 66.64 65.27 64.57 63.88 63.47 63.60 63.09 63.07 64.05
36.55 35.48 30.70 27.20 34.54 34.01 29.12 35.52 36.76 36.91 38.22 36.41 31.33 36.23 40.88 40.64 42.54 43.83 45.27 47.23 49.92 51.09 51.86 50.80 57.93 58.73 60.37 62.01 62.74 64.28 65.58 66.62 66.79 66.38 65.82 64.70 64.25 64.46 63.77 63.96 63.96 63.80 62.98 63.46
37.19 35.68 33.87 29.02 31.33 22.63 34.95 40.27 39.75 37.14 37.86 38.53 38.82 39.30 40.49 41.14 43.06 45.12 46.40 48.74 49.47 49.61 51.02 52.70 55.84 57.57 60.15 61.72 62.66 64.65 65.71 65.84 65.51 64.61 64.36 64.11 64.46 64.09 63.54 62.25 61.35 62.63 62.10 63.17
41.54 36.52 32.20 25.63 24.19 31.65 35.43 38.09 36.57 35.11 34.45 39.24 38.87 40.77 42.23 43.48 44.23 43.55 49.85 49.90 48.92 49.39 50.99 52.76 54.64 57.80 58.89 60.64 62.33 64.01 64.36 64.27 63.76 63.01 62.82 63.78 64.46 63.46 62.77 61.11 60.93 62.37 61.53 60.57
37.82 35.54 32.25 30.80 26.07 18.82 31.03 39.18 42.03 38.93 28.04 39.68 40.66 40.75 41.87 41.90 36.54 40.33 46.29 48.01 49.01 50.23 51.37 52.00 53.80 55.69 60.49 61.65 63.93 62.74 62.63 62.90 62.41 62.40 62.99 63.16 63.79 63.49 62.61 63.35 62.31 61.91 61.73 61.22
34.84 33.53 30.09 29.40 27.08 30.68 39.38 41.65 41.34 27.18 27.21 40.71 41.15 40.46 41.66 39.91 41.10 43.87 46.55 47.51 48.92 50.08 51.22 52.50 53.87 55.08 60.04 61.93 64.08 62.37 62.21 61.62 62.66 62.84 62.53 62.92 63.02 63.93 64.17 63.65 62.46 62.24 62.02 61.46
30.21 31.88 28.72 31.93 25.42 24.18 42.46 41.03 36.15 37.54 41.20 41.79 42.23 42.28 41.76 42.06 43.42 44.29 45.84 46.69 48.42 48.83 50.53 52.49 52.63 54.74 60.61 62.78 62.72 63.13 62.46 61.61 63.22 61.99 63.67 63.73 63.71 64.59 64.14 62.98 62.42 62.35 61.59 60.05
29.64 36.69 34.38 35.06 30.71 42.40 45.02 42.58 43.70 43.91 42.68 42.50 43.07 43.41 45.16 42.23 42.63 44.49 44.59 46.42 47.58 48.62 49.96 52.10 52.48 54.04 60.11 61.47 62.86 62.87 63.92 61.80 62.39 62.72 62.12 62.07 62.91 63.77 63.42 62.78 62.01 61.93 60.84 59.68
39.43 41.40 35.50 36.97 41.52 43.11 44.17 45.33 45.83 44.93 43.64 44.18 43.81 43.41 43.27 42.70 44.67 44.75 45.12 45.95 47.18 48.88 49.85 51.44 52.61 56.46 59.82 61.70 63.28 64.58 64.29 62.95 62.92 61.51 61.37 61.86 62.41 61.50 62.29 62.93 62.11 61.01 60.32 59.58
37.90 40.27 39.44 38.03 41.65 42.65 43.79 45.12 43.98 44.03 44.66 44.62 45.21 45.14 45.31 45.17 45.05 45.78 45.53 46.72 47.96 48.49 50.22 51.26 51.68 58.32 59.98 60.92 62.40 65.29 62.06 63.27 61.86 61.55 61.53 61.41 60.91 58.64 53.50 50.71 52.53 59.67 56.37 58.47
40.57 40.28 36.92 37.52 42.90 41.54 43.19 44.75 45.01 43.94 43.92 44.17 44.01 43.31 45.28 46.01 46.03 46.71 46.67 47.93 48.54 48.85 49.86 50.70 54.49 57.24 59.30 60.82 62.91 65.47 62.51 62.79 61.99 61.13 60.98 61.09 59.70 59.02 57.87 55.98 52.82 41.67 41.35 43.32

GFSCGP_sfc_wetblb_072.txt.gz
Wetbulb
40.65 35.30 32.17 35.40 36.89 38.67 37.66 35.91 34.39 37.58 41.31 38.90 38.15 38.85 41.41 43.09 42.80 42.65 44.32 45.77 46.33 48.29 53.11 58.15 57.69 57.64 57.77 59.29 60.72 62.16 68.88 68.74 69.10 68.74 68.56 67.45 68.30 66.92 66.83 66.82 68.47 68.47 69.70 69.20
36.55 32.50 39.44 41.56 40.97 39.11 37.79 35.09 34.16 37.93 41.13 38.99 37.72 38.23 41.51 42.17 42.07 42.47 43.21 44.32 45.70 47.47 48.92 53.46 57.05 56.10 55.67 57.38 62.24 62.73 67.32 70.23 70.41 70.03 69.91 66.67 66.26 64.06 64.92 66.31 66.96 68.54 70.36 69.66
32.98 37.35 42.48 41.06 38.80 37.70 36.02 34.54 35.51 35.98 40.19 39.70 37.26 35.80 38.57 42.24 42.83 43.69 44.12 44.52 45.51 45.69 47.22 50.61 54.86 56.79 55.38 55.98 60.33 62.80 64.49 69.00 70.64 69.89 65.78 64.39 64.64 65.00 65.27 65.11 65.57 67.84 70.43 70.64
35.75 40.09 39.49 38.41 37.66 38.76 33.06 40.63 39.51 37.88 34.94 28.05 36.82 27.85 35.19 38.10 39.47 41.60 42.73 42.99 43.68 45.28 46.99 48.47 50.97 54.95 55.75 55.70 59.68 62.77 63.53 65.09 66.67 65.22 65.16 63.55 63.35 62.39 63.53 64.17 66.25 68.70 69.96 70.41
35.16 36.50 36.05 35.88 38.93 41.17 36.87 40.98 38.05 37.41 34.21 29.81 32.22 27.11 32.92 37.17 37.28 39.39 41.57 42.49 43.84 44.78 46.17 47.14 48.95 51.96 55.91 57.61 61.06 62.90 63.75 63.30 63.38 64.02 64.83 64.11 62.43 63.59 64.45 65.49 66.58 68.19 68.62 69.99
37.36 40.77 40.73 40.35 42.24 41.27 41.94 37.49 35.86 33.98 29.98 22.99 29.59 28.84 31.27 32.69 36.47 38.07 42.20 44.63 46.35 47.65 48.66 48.96 50.21 50.31 52.45 56.52 61.60 61.30 60.86 61.96 62.45 63.33 63.33 62.42 62.96 64.08 65.41 65.55 66.08 67.22 68.10 68.31
35.84 36.22 41.21 43.12 36.84 38.63 36.15 30.15 23.32 21.92 21.73 22.49 32.72 29.62 32.12 37.29 40.25 42.20 43.26 44.40 45.97 46.73 47.07 47.87 48.39 50.33 50.31 52.94 59.12 61.89 61.43 61.37 61.18 61.72 63.40 63.67 63.11 63.94 65.00 66.00 67.41 66.84 66.89 66.28
27.35 25.55 36.57 41.59 36.99 33.21 32.22 31.14 23.79 20.56 21.55 23.71 32.97 25.95 31.39 40.68 43.78 44.39 45.17 44.78 45.86 45.75 46.57 48.11 49.31 50.21 52.24 51.65 57.20 60.56 61.28 61.67 61.06 61.77 62.48 64.45 63.94 64.51 65.19 66.87 68.47 68.47 68.47 67.73
28.60 30.33 39.50 40.56 39.92 36.96 32.13 28.16 33.27 28.12 28.72 23.91 26.42 31.36 37.05 41.52 42.10 43.22 43.32 44.58 43.47 44.96 46.38 47.93 50.84 50.96 53.29 53.42 54.96 58.89 59.66 60.52 60.15 61.67 62.88 63.85 65.07 64.57 66.35 67.48 68.60 68.42 68.17 68.01
33.50 27.22 36.94 39.36 39.91 38.63 34.56 36.79 25.94 25.48 20.28 20.10 24.92 27.67 28.72 36.86 38.87 41.19 41.45 41.45 42.91 45.15 46.92 48.98 50.27 50.80 53.23 53.22 54.20 54.23 56.88 58.79 59.02 60.45 62.66 64.79 65.75 66.69 67.27 68.19 68.03 67.94 67.47 68.31
34.03 30.61 31.75 35.50 32.67 30.87 31.91 29.73 31.21 29.23 27.48 19.53 22.06 24.81 37.64 37.81 38.93 39.26 40.94 43.26 43.97 45.49 46.87 49.64 49.75 50.22 50.71 58.15 58.92 58.97 56.47 57.25 59.36 61.98 64.41 65.35 66.51 68.28 68.68 68.61 68.20 67.60 67.63 67.63
36.12 31.37 26.57 30.89 37.48 38.92 36.74 33.15 33.18 22.90 22.48 27.68 27.91 26.05 39.70 39.24 40.00 41.47 42.20 43.60 44.10 45.76 47.66 50.04 50.50 49.46 50.52 57.71 58.67 58.88 58.57 59.87 62.56 65.96 67.16 66.96 67.47 68.42 68.44 68.48 68.34 67.94 67.76 67.29
36.19 29.30 25.32 26.25 30.93 34.86 32.67 34.30 33.80 32.34 30.34 26.98 24.09 25.70 41.12 40.76 40.96 42.85 41.73 44.17 44.67 46.11 48.71 50.44 50.26 49.47 50.25 54.61 59.33 59.01 60.54 62.47 66.29 67.47 67.34 66.94 67.47 68.29 67.21 67.03 67.75 68.05 67.77 67.42
41.76 31.42 28.27 23.08 28.15 30.85 30.94 34.46 35.48 32.53 28.63 28.01 28.54 30.82 35.92 39.12 40.49 41.76 44.62 45.44 45.89 47.30 48.43 48.87 48.53 50.15 51.14 58.76 61.90 60.91 63.81 65.81 67.42 67.71 67.52 66.98 66.93 66.04 65.90 65.93 66.04 66.45 66.64 66.03
36.52 29.45 32.56 33.65 35.46 35.76 34.78 34.41 35.14 32.88 32.82 28.35 31.94 32.84 36.20 38.94 40.15 42.27 45.21 46.54 46.50 47.82 48.50 48.23 50.50 51.80 56.32 58.22 60.10 62.95 66.24 67.12 67.20 67.12 66.92 65.48 65.84 65.40 65.56 65.53 64.65 63.83 64.14 63.79
35.34 29.50 33.32 32.27 35.60 35.31 33.44 35.02 36.42 36.07 36.29 34.54 34.07 32.48 39.05 40.46 41.90 42.43 44.46 46.57 46.78 47.78 48.76 50.61 50.82 55.68 57.94 58.52 57.92 60.27 64.06 65.78 66.99 66.51 65.64 65.93 65.45 65.19 64.98 64.53 63.76 62.32 61.84 61.79
32.77 30.64 30.70 27.84 33.42 33.12 29.04 34.62 36.43 36.52 37.43 35.01 31.37 33.62 38.41 38.36 40.49 41.46 42.48 44.14 45.17 47.27 49.50 49.17 49.86 51.46 56.15 58.87 58.75 61.70 62.31 65.45 65.86 65.88 65.28 65.34 65.14 64.10 63.41 63.94 62.48 60.61 60.35 60.91
33.88 34.46 33.84 29.30 29.15 19.91 33.00 39.24 39.18 36.84 37.20 38.94 37.49 38.48 39.48 40.34 42.03 43.38 45.11 44.78 46.51 46.78 47.43 48.91 49.77 50.46 52.52 58.63 59.55 60.70 60.17 63.60 65.19 65.05 64.56 65.06 64.46 63.28 62.88 62.25 60.97 60.04 60.80 61.73
39.02 34.81 31.64 28.52 21.62 29.67 33.04 37.56 35.70 34.11 33.83 39.47 37.24 38.75 40.67 42.08 42.34 41.38 46.25 48.05 44.90 45.74 47.48 48.69 50.12 50.90 54.69 59.70 59.42 58.99 59.82 63.22 64.57 64.55 64.17 64.11 63.68 62.58 61.16 60.02 59.73 60.13 60.51 59.86
37.84 37.58 33.50 30.37 25.03 18.26 28.05 38.37 41.02 38.71 29.77 38.44 38.87 38.66 39.47 40.27 34.32 37.14 42.77 45.34 45.16 46.29 47.37 48.68 49.86 51.97 52.85 58.79 60.46 59.62 59.58 63.27 63.22 63.87 63.68 63.83 63.56 62.17 60.03 59.87 59.82 59.31 59.51 59.62
33.53 32.90 28.78 30.28 26.85 30.15 37.06 41.31 41.43 26.75 28.51 38.91 39.58 39.84 39.05 37.71 39.75 42.51 44.38 44.33 45.61 46.19 47.42 49.38 49.64 50.53 52.68 58.53 60.90 59.59 58.79 61.95 62.94 63.30 63.49 63.73 63.07 61.69 61.43 60.46 59.99 59.71 60.06 60.30
31.61 28.92 28.88 30.81 27.34 22.11 40.94 38.87 34.97 37.85 41.27 42.35 41.59 41.46 40.50 41.80 42.86 43.59 44.09 43.97 44.80 45.51 47.13 48.65 48.69 49.89 53.41 57.23 60.59 59.73 60.31 62.05 62.95 62.40 62.83 62.61 62.64 63.45 63.15 61.03 60.46 60.87 60.26 59.31
29.83 34.68 33.59 34.53 29.12 36.79 41.31 41.72 43.82 44.38 42.85 42.68 42.85 42.99 43.34 42.59 43.10 43.74 43.37 44.08 44.76 45.47 46.45 48.27 48.75 50.40 53.11 59.43 60.86 60.37 60.78 62.31 62.04 61.86 62.09 62.91 62.49 62.30 62.00 61.55 60.85 59.96 59.41 59.11
37.45 39.10 33.58 33.99 38.02 39.90 41.88 44.78 44.34 45.20 43.87 44.58 43.48 42.59 42.88 42.21 43.25 42.89 43.68 44.41 44.76 45.59 46.47 48.16 48.79 50.21 51.42 59.04 60.68 60.38 62.73 62.78 62.24 61.36 61.62 62.60 61.97 61.11 61.47 62.11 61.82 60.32 59.19 58.91
35.46 36.98 35.88 36.14 40.08 41.90 43.22 43.76 44.30 43.74 43.23 43.46 43.95 43.44 43.81 43.51 43.13 43.74 44.80 45.11 46.08 46.54 47.62 48.51 48.81 49.44 52.51 58.00 59.94 62.52 63.68 62.48 61.06 60.97 61.26 60.90 60.43 58.17 53.77 50.18 53.43 59.51 58.65 58.76
37.69 36.87 34.51 33.29 40.81 41.97 42.53 44.93 44.30 43.61 42.53 42.46 42.38 42.51 43.86 44.43 44.23 45.21 45.02 45.92 46.33 46.50 47.71 47.94 49.15 50.53 54.21 57.67 60.65 62.64 63.61 62.27 61.32 59.93 59.96 58.98 57.90 57.06 55.08 53.43 50.99 41.61 41.47 44.74

GFSCGP_sfc_wetblb_075.txt.gz
Wetbulb
38.79 34.02 30.80 34.59 35.75 36.87 35.65 33.82 32.85 36.31 39.73 37.39 36.38 37.64 39.51 41.70 41.79 41.22 42.97 43.62 44.07 45.36 48.37 49.77 50.82 52.98 55.39 56.62 58.16 59.37 62.32 64.80 66.27 65.46 65.52 65.86 66.27 67.37 67.17 67.41 67.75 68.00 67.82 67.05
34.72 30.96 37.71 39.64 38.78 36.74 35.68 33.02 32.10 36.41 40.59 38.91 36.71 37.34 39.87 39.83 40.66 41.39 42.26 42.88 43.37 44.31 45.60 47.61 48.89 49.70 51.56 54.02 54.94 58.57 61.28 64.30 66.18 67.17 67.43 66.78 67.57 65.93 67.86 67.89 67.28 67.79 68.50 68.00
31.61 35.98 40.51 39.64 37.37 35.82 33.75 33.35 33.94 34.26 38.41 38.90 36.12 35.78 37.02 39.65 40.68 42.08 41.79 42.94 43.27 42.96 43.26 45.05 46.95 47.90 48.67 50.88 53.75 55.64 59.99 64.09 67.13 67.60 66.43 63.52 64.57 64.91 64.47 64.88 65.40 66.55 67.97 69.16
34.47 38.20 38.06 35.61 35.92 37.35 31.45 38.68 37.71 36.25 33.21 26.71 36.31 26.02 35.18 36.99 37.39 39.49 41.07 40.35 40.09 41.56 45.15 47.26 48.70 47.46 48.03 49.88 51.25 53.55 59.05 62.44 68.01 68.44 66.51 65.93 66.11 65.90 64.83 65.28 64.96 65.45 67.55 69.23
34.27 35.21 35.09 33.87 36.28 39.43 34.70 39.59 36.56 36.01 31.84 28.33 30.71 25.48 29.92 37.30 36.70 37.35 38.49 42.69 44.15 45.57 46.50 46.86 48.18 49.38 50.70 51.66 49.95 52.19 57.07 60.98 64.97 68.68 67.91 66.77 62.52 63.38 62.14 63.12 63.86 65.57 67.49 69.42
35.99 39.00 37.38 37.28 40.88 39.81 40.50 35.69 33.33 31.69 27.84 21.59 28.91 28.09 27.95 31.00 33.78 36.47 42.05 44.48 45.62 45.64 46.22 47.17 48.46 49.34 50.27 51.25 51.95 51.69 56.65 59.80 61.57 65.15 66.77 65.82 64.91 61.53 61.88 62.73 64.02 65.82 66.94 68.37
34.20 34.47 39.75 41.60 35.01 36.85 34.51 27.73 20.71 19.65 20.95 21.67 30.35 27.89 29.75 35.92 39.60 41.33 42.21 43.61 44.83 45.62 44.69 45.34 46.07 47.63 49.78 51.02 52.04 52.44 53.51 58.97 60.81 62.76 64.25 63.73 63.66 61.64 62.38 63.12 64.86 65.89 66.13 66.51
26.08 24.95 35.30 39.90 35.66 31.17 30.75 29.24 20.77 16.49 19.24 22.09 30.96 23.88 29.35 37.95 42.60 43.31 44.38 44.08 44.76 44.08 44.63 45.39 46.62 47.68 49.99 51.19 51.58 51.75 53.06 57.38 60.55 61.49 62.97 63.54 62.66 61.47 62.50 64.31 65.29 66.57 67.20 67.24
27.25 29.00 38.02 38.99 38.44 35.77 30.08 26.61 30.86 25.24 24.73 21.26 24.88 30.18 35.18 38.37 40.67 42.13 41.81 42.65 42.69 43.80 45.15 46.25 47.77 49.05 50.50 50.38 50.60 50.66 54.16 54.46 60.25 61.55 62.65 62.37 61.97 60.92 62.79 64.48 66.04 66.93 66.75 67.56
32.27 26.95 35.56 37.92 38.22 37.24 32.90 35.36 24.56 22.97 19.60 18.59 23.59 25.24 27.56 34.40 36.77 40.10 39.46 40.52 42.92 44.40 44.60 45.69 47.17 48.59 50.84 50.12 50.78 51.39 55.90 54.11 59.20 59.78 60.39 61.02 62.67 62.69 62.99 65.25 66.34 66.59 66.79 67.56
33.16 29.59 30.70 34.02 31.56 29.78 29.61 28.00 29.38 26.49 24.37 16.68 19.37 24.05 33.70 35.61 37.29 37.99 39.17 41.49 42.46 42.98 44.61 46.04 47.91 49.51 50.12 50.89 50.95 51.52 54.82 54.81 57.42 56.35 58.83 60.48 62.54 63.39 65.07 65.73 66.91 67.20 67.04 67.31
35.59 30.42 26.52 29.91 35.78 37.60 33.91 31.61 30.21 21.93 21.86 26.34 24.21 25.76 38.09 37.88 39.01 39.52 39.67 42.73 42.93 44.74 45.97 47.45 48.77 50.00 50.41 51.46 52.42 52.81 56.32 53.38 56.96 57.65 58.68 61.19 63.52 65.07 65.52 66.30 66.97 66.77 66.89 67.53
35.45 28.35 24.96 25.66 28.93 33.24 31.29 33.67 32.73 30.11 27.78 27.56 23.60 25.53 38.82 39.35 39.71 41.02 41.19 42.38 44.25 45.47 45.60 47.85 49.11 50.50 51.61 52.62 53.68 58.80 61.31 58.10 59.02 61.70 61.94 63.50 64.80 65.74 66.10 66.68 66.54 66.86 66.77 66.82
40.73 29.82 28.96 23.42 27.04 28.91 29.44 32.67 34.14 33.59 28.44 26.84 27.79 29.87 34.87 37.20 38.36 40.48 41.75 42.85 44.56 46.02 46.86 48.37 48.92 50.43 51.29 53.48 57.48 58.00 60.94 60.14 62.92 64.57 64.62 64.55 65.78 66.80 67.04 66.68 66.70 66.82 66.82 66.57
35.76 28.63 30.95 32.31 34.13 34.32 33.50 33.60 34.36 32.02 32.30 28.62 30.82 30.76 34.83 37.61 38.13 39.89 42.05 43.96 45.43 47.60 46.70 49.01 50.10 50.24 50.39 51.23 56.48 58.16 61.24 63.31 65.16 65.65 65.52 65.72 66.21 65.66 65.86 66.20 66.39 66.57 66.42 65.86
33.34 28.29 31.65 30.96 34.82 34.72 32.19 34.36 34.69 34.37 34.56 34.29 34.21 33.00 38.37 38.49 39.29 39.49 41.32 42.81 43.78 45.36 46.61 49.20 49.13 49.96 50.36 52.04 55.10 58.64 60.74 63.25 65.96 65.71 64.71 65.07 64.79 65.15 65.35 65.35 65.94 65.66 64.65 65.13
32.00 30.29 29.23 26.30 32.80 32.36 28.24 32.85 34.25 35.46 36.19 34.35 30.66 35.97 37.90 38.26 39.02 39.66 41.13 42.90 43.54 45.40 46.47 46.20 47.86 48.94 50.23 52.31 58.05 57.31 59.86 60.14 63.78 64.56 64.95 64.51 64.54 64.38 64.20 64.64 64.17 63.48 62.98 63.23
30.23 28.56 30.25 27.64 30.63 23.67 31.66 38.37 37.98 35.94 36.80 37.57 36.81 38.09 39.13 38.80 39.99 41.64 43.30 42.84 45.16 44.67 44.74 45.45 46.85 48.29 49.71 52.57 57.98 58.47 59.22 59.80 59.40 63.35 64.37 64.38 64.20 63.63 63.45 63.17 62.36 61.31 61.11 60.97
35.85 33.59 31.42 27.83 23.07 28.86 32.22 36.48 34.41 33.07 32.63 38.34 37.27 39.11 40.00 39.67 40.37 40.05 43.84 45.68 44.68 44.77 45.48 45.92 47.59 48.41 49.83 51.60 54.42 59.19 58.04 59.61 59.57 61.31 63.88 63.84 63.74 62.98 62.58 61.37 60.97 60.75 60.02 59.31
37.61 37.29 32.90 30.18 24.61 16.86 26.62 37.21 40.29 37.61 29.86 37.57 37.72 37.08 37.81 38.74 34.23 37.69 41.22 43.71 44.47 45.37 46.01 45.78 47.37 48.31 48.47 50.54 54.04 59.21 58.34 58.02 57.92 61.76 63.91 63.93 63.49 62.52 60.84 60.30 59.67 58.15 59.88 58.29
33.69 33.40 30.29 29.61 27.40 27.42 35.79 40.17 40.14 29.14 29.12 38.16 41.42 39.49 38.65 37.23 39.96 42.66 43.77 44.21 45.56 45.03 45.63 46.63 47.33 46.70 48.35 51.75 54.80 58.43 58.08 56.70 58.65 59.57 62.11 63.10 62.49 60.68 60.00 59.30 59.53 58.19 58.86 58.37
30.99 30.01 28.89 30.38 27.72 24.28 40.48 38.89 33.34 35.57 39.62 41.23 41.88 41.64 40.60 41.95 42.54 42.69 43.53 43.61 44.51 44.86 45.67 46.48 46.01 47.13 49.54 51.96 55.04 58.34 57.87 59.27 58.66 57.79 63.17 62.29 60.49 60.99 60.43 59.62 59.03 59.27 58.95 57.89
30.31 34.00 33.08 33.27 30.66 36.78 39.82 39.20 41.90 42.47 42.71 43.26 42.24 42.88 42.67 41.18 41.13 42.28 42.53 43.48 44.18 44.79 45.43 46.36 46.04 47.30 49.32 52.17 56.41 58.07 57.62 57.17 59.27 61.03 61.48 60.96 61.16 60.84 60.08 59.54 58.84 58.70 58.80 58.14
36.49 38.16 31.53 31.30 35.57 37.25 40.51 42.46 43.90 45.44 45.02 44.32 43.42 41.40 42.12 41.21 41.79 42.32 42.55 43.46 44.24 44.44 45.84 47.00 46.92 47.50 48.68 52.00 56.41 57.65 59.81 60.08 61.48 61.04 61.09 61.13 60.48 59.67 60.08 60.46 59.99 59.11 58.52 58.88
34.41 35.25 32.30 32.91 36.89 39.28 40.83 42.70 43.47 43.55 43.20 42.47 42.55 41.60 41.23 41.51 41.96 42.69 42.79 44.65 44.31 45.20 46.25 47.46 47.32 47.85 49.75 52.44 56.22 58.92 61.76 62.30 61.08 61.07 61.37 60.74 59.91 58.90 54.11 49.77 52.99 58.64 57.73 58.63
35.82 33.71 32.82 31.64 37.95 38.96 40.47 43.54 43.46 40.75 40.06 40.37 40.44 41.07 42.59 42.78 42.77 43.82 44.23 45.83 46.54 46.22 47.06 47.19 47.57 48.83 50.40 52.94 56.55 59.17 60.21 61.91 61.19 60.17 60.60 59.35 58.02 56.73 55.17 54.17 51.44 41.39 41.34 45.59

GFSCGP_sfc_wetblb_078.txt.gz
Wetbulb
37.23 33.23 29.81 33.60 34.64 34.87 33.91 31.86 30.89 34.56 38.02 36.92 35.56 37.13 38.72 41.31 40.54 40.66 42.09 42.99 43.63 45.16 48.26 49.96 51.06 50.30 51.02 51.08 54.40 55.64 56.60 58.45 64.32 64.48 63.69 64.02 64.48 65.59 65.81 66.81 67.05 67.07 67.14 67.03
33.82 29.98 36.20 37.87 36.57 35.05 33.34 31.01 30.68 35.45 39.35 37.11 35.88 36.10 39.36 40.36 40.21 41.18 41.94 42.42 42.72 43.42 43.93 46.92 49.11 50.13 49.44 49.67 50.76 52.53 55.54 57.36 60.64 65.29 65.12 65.60 65.93 66.48 66.99 67.31 67.45 67.96 67.57 67.49
30.73 34.71 39.12 37.75 35.27 34.27 32.15 31.41 32.34 33.00 37.01 36.81 34.66 32.52 34.34 38.83 40.49 41.62 41.47 42.29 42.09 41.68 43.73 47.14 49.48 49.67 48.75 48.88 50.34 50.92 51.69 56.03 58.45 64.23 65.40 64.35 65.05 65.12 64.96 65.89 66.92 67.69 68.21 68.16
33.02 36.70 36.70 33.95 33.92 35.58 29.60 37.60 36.28 34.81 30.91 24.58 34.45 23.26 31.72 35.21 36.82 38.66 39.81 39.13 41.08 44.59 46.56 47.18 48.37 48.28 48.79 50.00 51.13 50.29 49.43 52.45 56.66 62.36 65.36 65.32 65.38 64.96 66.07 66.96 67.23 67.19 68.23 68.66
33.47 33.76 33.09 32.31 34.46 37.73 33.15 38.11 34.90 34.37 29.79 26.85 28.64 24.37 28.74 34.27 33.78 35.60 37.88 41.64 43.76 44.60 45.08 45.65 46.65 47.98 48.84 49.78 50.15 50.95 50.99 50.98 54.95 58.71 66.01 65.84 65.39 66.28 65.85 63.98 65.19 65.77 66.32 68.12
34.93 37.69 35.91 35.49 39.26 38.40 38.41 34.12 31.29 28.95 25.95 20.57 26.43 25.68 24.82 29.57 33.62 36.10 39.58 42.58 44.15 44.59 45.18 45.48 46.63 47.55 47.98 49.29 50.02 51.22 50.75 51.76 52.80 57.28 62.34 66.08 65.70 64.30 62.74 63.16 64.23 64.79 66.27 67.73
32.76 32.81 38.09 39.77 33.74 35.27 32.85 26.51 19.91 18.45 18.89 20.33 28.78 25.86 28.73 34.95 38.25 38.46 40.14 42.32 43.38 43.87 43.37 43.36 44.68 46.13 47.76 48.78 50.14 51.60 51.94 50.83 51.94 55.60 59.61 65.07 66.36 65.24 63.41 63.86 63.26 64.56 65.25 66.87
25.01 24.37 34.69 39.15 34.08 30.46 29.21 27.84 19.96 15.48 18.14 18.65 28.78 23.06 27.62 36.00 38.76 42.12 43.55 43.06 43.23 42.39 43.30 44.89 45.95 46.33 47.45 49.04 50.09 51.16 50.89 50.37 51.39 53.37 57.41 61.29 65.47 66.25 64.84 64.00 63.63 64.94 66.04 66.96
27.55 28.12 36.75 37.81 37.18 35.11 28.23 25.53 28.42 23.44 22.88 19.09 22.97 27.87 34.09 37.16 37.26 40.85 41.34 41.85 41.17 42.32 43.93 44.71 46.20 47.37 48.51 49.90 50.30 50.73 50.75 50.91 51.35 54.09 55.86 59.90 63.05 64.78 64.02 63.25 64.80 65.12 66.56 67.37
31.64 26.82 34.49 36.50 36.76 35.93 31.54 33.83 23.68 21.67 18.49 17.43 21.62 23.99 26.10 32.50 35.02 37.16 39.20 39.88 40.87 42.84 43.32 44.76 46.73 47.84 49.54 51.51 51.34 50.89 52.06 51.53 51.77 54.32 55.62 59.91 62.08 63.42 63.14 63.68 64.59 65.74 66.57 67.82
32.90 29.02 30.15 32.89 30.58 28.62 28.48 26.75 28.16 25.00 21.82 15.77 18.15 22.81 32.44 33.48 35.74 36.12 38.16 39.90 40.24 42.12 42.78 45.05 46.45 48.39 50.45 51.81 52.41 52.84 53.37 53.41 53.67 54.85 55.08 59.99 61.21 62.08 62.21 63.51 65.17 66.23 66.99 67.78
34.08 29.06 26.10 29.43 33.65 36.03 32.22 29.80 29.06 21.57 21.05 24.98 24.97 25.18 37.12 35.48 36.59 38.90 39.04 41.32 41.87 43.00 44.27 45.47 46.90 49.05 50.39 51.16 51.46 51.63 53.63 57.51 59.60 58.89 56.15 59.01 60.79 62.00 63.14 64.07 65.65 66.79 66.99 67.77
34.73 27.83 24.09 25.22 28.02 31.50 30.08 32.43 31.26 28.63 26.47 26.13 24.48 25.43 37.52 37.62 37.25 39.27 39.93 41.08 42.97 44.07 44.85 45.90 45.72 46.35 50.17 50.82 50.59 50.75 52.40 55.20 59.17 60.35 56.11 58.75 61.43 62.51 63.42 64.10 65.90 66.77 67.15 67.53
40.09 28.68 27.41 23.04 25.95 27.77 27.02 31.23 32.05 29.85 28.28 26.28 27.41 29.51 34.85 36.92 37.28 38.79 39.90 41.35 42.14 43.81 45.37 46.21 46.94 47.74 50.34 50.29 49.85 50.29 52.48 54.29 59.24 61.80 57.24 59.59 62.19 63.27 63.92 65.30 66.10 66.70 67.33 67.15
36.49 29.25 29.68 31.08 33.08 33.27 32.43 32.27 33.17 30.99 31.85 28.38 30.65 30.93 34.66 37.18 38.00 38.73 40.98 41.58 42.81 43.65 44.69 46.04 47.85 48.73 49.19 48.77 49.04 50.50 52.51 54.18 59.64 63.25 61.74 61.26 63.32 64.54 65.43 65.78 66.27 66.74 67.04 67.15
32.36 28.49 30.10 28.89 33.04 33.21 31.46 33.73 34.03 33.79 33.58 32.95 33.18 32.33 38.89 39.88 39.56 38.74 39.45 41.27 42.08 43.17 44.69 47.32 47.22 47.46 47.06 48.23 48.71 50.85 51.88 55.26 60.34 64.51 63.93 65.29 65.63 65.92 65.94 66.14 66.30 66.43 66.47 66.23
31.90 31.66 30.17 25.67 30.72 30.88 26.72 31.31 32.65 33.45 34.29 33.04 29.64 34.73 38.07 38.56 39.90 39.64 39.34 41.38 41.99 43.17 45.68 45.28 46.08 47.19 47.45 48.85 49.60 50.06 51.77 57.32 60.07 63.88 64.38 64.69 65.16 64.90 65.34 65.52 65.92 65.80 65.39 65.64
30.47 30.08 30.39 27.20 28.98 20.71 30.18 36.66 37.11 34.50 35.96 36.63 36.55 37.89 39.22 39.57 41.13 41.16 41.29 41.15 42.38 43.76 45.34 45.51 46.20 46.71 47.03 49.36 50.38 51.07 52.53 58.39 59.52 61.84 63.92 65.02 65.33 64.67 65.64 65.75 65.30 64.92 64.89 64.54
35.40 32.17 30.08 26.96 25.47 28.48 30.79 34.45 33.04 31.71 31.94 36.77 36.12 38.10 40.14 40.10 40.31 40.80 42.94 43.96 43.58 44.62 45.45 46.13 46.77 47.07 47.21 48.07 49.52 50.50 52.93 58.75 58.81 57.84 63.52 63.98 64.63 64.28 64.31 64.21 63.46 63.52 63.26 62.34
36.67 35.91 31.54 31.22 22.64 18.28 28.23 35.71 39.14 36.60 28.24 37.50 36.72 37.08 38.35 38.95 34.65 38.45 43.65 44.01 44.85 45.09 45.72 45.76 46.54 47.09 47.04 47.74 48.76 49.91 53.10 57.94 57.36 57.77 63.95 63.29 63.55 63.24 62.79 62.31 61.71 63.06 62.35 59.79
33.05 32.53 29.02 29.07 27.06 28.14 34.91 38.82 39.02 28.36 27.76 36.46 38.90 40.02 40.41 39.16 40.04 42.76 43.83 44.07 44.73 44.93 45.09 46.25 46.68 46.02 46.61 47.90 49.10 49.98 53.80 57.19 57.84 59.55 59.62 63.64 63.30 61.66 61.54 61.11 60.97 61.00 59.68 58.72
32.49 30.33 29.49 30.46 26.63 23.82 39.87 38.00 32.95 34.35 37.89 40.70 41.11 42.30 42.25 42.23 42.48 42.95 43.18 42.64 43.68 43.77 44.71 45.79 45.39 45.60 46.84 48.07 49.14 50.93 56.51 57.89 59.10 58.16 59.74 62.75 61.50 61.74 61.19 60.21 60.11 59.87 58.85 57.21
27.58 34.85 32.61 33.11 28.47 37.33 38.07 38.63 39.76 40.28 40.28 41.27 43.72 43.77 43.30 41.99 41.92 42.21 42.40 42.50 43.02 43.51 44.29 45.72 44.89 45.76 47.28 48.40 50.13 51.30 56.65 59.04 58.25 58.66 60.36 61.19 61.06 60.88 60.61 59.93 59.34 58.62 58.42 56.93
33.83 36.45 31.14 30.41 35.41 35.76 37.40 39.97 40.96 41.84 42.01 43.17 43.13 42.04 40.51 38.61 39.63 40.05 41.39 42.38 42.88 44.02 45.21 46.00 45.47 45.84 46.75 49.17 50.99 53.12 56.29 59.03 58.36 56.82 61.11 60.89 59.93 59.62 60.32 60.17 59.95 59.15 58.47 57.49
35.01 34.27 31.42 30.56 34.29 37.11 39.15 41.12 42.51 42.34 43.24 42.13 41.28 40.05 39.60 40.84 40.96 41.57 41.62 42.88 43.88 45.08 46.31 47.34 46.15 46.31 47.42 49.52 51.33 53.62 57.22 59.66 57.81 56.46 60.97 60.37 59.69 59.11 53.59 49.87 55.31 59.64 59.74 58.45
35.92 34.77 33.53 33.03 38.41 37.83 39.36 43.10 43.85 43.05 41.48 40.37 39.37 39.83 41.56 42.14 41.64 41.80 41.55 43.49 43.80 44.49 45.71 46.37 46.82 47.50 48.57 49.86 51.85 55.29 58.49 58.72 57.61 57.43 59.67 59.57 58.59 56.87 55.09 54.82 52.33 41.43 44.00 44.54

GFSCGP_sfc_wetblb_084.txt.gz
Wetbulb
47.25 44.33 42.20 43.72 44.90 44.85 43.24 41.94 41.10 43.16 45.68 44.78 44.52 44.98 46.82 48.75 49.29 48.75 48.68 49.38 50.64 51.24 53.17 54.15 57.36 58.59 59.76 61.33 62.32 62.93 63.52 65.73 65.14 64.31 67.24 68.82 70.13 71.69 71.98 72.79 72.97 72.67 72.28 72.35
44.11 41.41 44.45 44.70 44.44 43.52 42.85 41.40 41.29 43.52 45.20 44.30 44.06 43.67 46.74 47.97 48.24 49.59 49.58 49.37 50.63 51.64 51.78 54.50 56.89 58.28 57.85 59.64 60.81 61.88 62.64 63.84 64.40 63.92 66.69 66.62 68.17 69.50 71.78 73.15 74.62 73.74 72.70 72.54
41.94 43.17 45.05 43.52 42.99 42.10 42.52 41.34 41.15 41.07 43.49 45.03 43.53 41.87 44.49 46.71 48.25 49.70 50.53 51.71 52.07 51.19 51.18 54.09 55.53 57.03 58.45 58.81 59.79 60.49 61.70 62.90 64.01 65.25 64.71 65.54 67.60 69.71 69.65 71.77 72.46 73.92 73.77 72.94
42.92 44.42 43.05 42.33 41.24 42.57 40.12 43.85 42.29 40.80 40.21 37.26 42.77 35.29 42.11 44.63 45.24 47.32 49.35 50.60 51.21 51.93 53.34 53.43 54.26 55.87 56.99 58.04 59.32 60.51 62.19 62.98 63.34 64.54 64.57 65.39 63.93 63.97 66.18 70.31 71.98 73.27 74.44 73.72
41.32 42.01 41.96 40.93 41.93 43.75 41.36 43.83 42.41 41.80 40.06 39.87 39.93 37.07 41.60 43.94 43.34 45.81 48.06 49.18 51.15 52.45 53.45 53.75 54.49 55.17 57.24 58.57 59.47 60.62 61.88 62.88 63.46 63.88 64.36 63.44 63.74 63.65 65.33 67.24 73.17 76.04 75.81 74.59
43.82 45.78 44.00 43.69 44.41 44.87 44.69 42.60 42.72 42.63 40.51 34.47 39.34 37.96 39.91 41.90 43.83 45.73 47.36 49.17 50.01 52.28 52.90 53.92 55.04 56.43 56.52 57.92 59.03 60.53 61.18 62.25 63.30 63.56 64.06 63.85 63.60 63.82 64.04 66.73 67.68 69.61 71.83 73.46
42.84 42.71 44.81 45.85 42.83 44.64 43.50 40.59 34.45 33.56 33.86 33.86 39.92 37.17 40.40 44.54 45.13 45.86 46.14 47.22 49.31 51.91 52.16 53.07 53.94 54.91 56.40 57.48 58.29 58.42 59.28 59.93 61.86 62.85 63.27 63.50 63.86 64.50 64.20 65.37 65.87 69.30 69.10 70.79
37.91 36.15 42.49 45.67 43.34 41.37 41.34 40.50 34.87 27.12 30.83 35.11 39.37 34.20 40.40 45.38 46.20 46.65 47.71 49.37 50.77 51.33 52.32 53.52 54.34 55.17 56.07 57.11 57.98 58.50 59.15 58.96 59.89 60.65 62.28 64.00 65.13 63.95 63.82 66.05 66.81 67.55 69.88 71.50
38.49 37.93 43.65 44.38 44.78 44.01 40.76 37.68 42.24 36.37 37.33 33.62 36.70 39.44 43.35 45.51 45.34 46.22 46.93 48.93 50.00 51.15 52.40 52.61 53.83 55.42 56.23 56.89 57.69 58.39 58.86 59.46 60.36 60.82 61.59 62.76 64.58 65.50 64.75 66.58 69.34 68.48 72.01 70.62
42.34 36.46 42.95 43.59 44.49 44.46 42.51 43.50 35.67 36.94 28.64 28.52 34.99 36.29 38.38 41.88 42.83 45.18 46.22 47.28 49.44 51.35 51.86 52.65 53.69 55.07 56.00 56.77 57.68 58.26 58.61 58.36 59.56 60.05 61.06 61.55 63.63 65.55 66.82 66.47 67.74 69.76 72.44 73.41
44.65 41.08 39.90 42.39 40.70 39.69 40.54 38.58 38.89 38.96 37.63 30.91 30.45 36.86 44.76 43.59 44.96 44.93 46.77 49.03 49.99 50.92 52.06 52.87 53.80 54.90 55.32 56.30 56.72 57.70 58.06 58.37 58.60 59.04 60.16 60.95 62.42 64.46 65.70 67.06 67.81 68.92 72.29 72.62
44.39 41.08 36.36 38.38 43.19 44.13 42.85 40.73 41.00 34.93 33.00 36.30 35.29 35.82 45.86 45.99 46.75 47.24 48.18 49.64 50.99 51.80 52.60 52.94 53.46 53.66 54.20 55.07 56.03 56.28 56.71 56.71 57.48 58.33 59.12 60.02 61.93 63.48 64.47 65.90 68.24 68.89 70.29 71.23
43.37 39.16 33.66 35.63 39.64 42.05 39.45 41.28 41.62 41.34 40.24 35.14 33.57 36.86 46.30 46.96 47.54 48.60 48.61 49.94 50.82 51.68 52.22 52.80 52.92 52.92 53.38 54.08 54.92 55.25 55.75 55.79 56.23 57.46 58.46 59.20 60.94 62.12 63.19 65.31 68.22 68.95 69.17 70.37
44.82 40.68 36.46 32.43 35.97 38.40 36.29 38.52 40.45 39.26 34.46 35.89 36.77 38.70 43.24 45.43 46.20 47.70 48.92 50.26 50.69 51.44 51.63 51.90 52.42 52.71 53.33 53.89 54.36 54.71 54.86 55.47 56.34 57.37 57.69 58.25 60.13 61.88 62.67 64.58 68.14 68.89 69.07 69.69
43.05 37.22 38.53 38.32 39.12 39.09 38.36 37.85 38.76 37.55 38.51 33.92 37.88 39.05 42.83 45.34 46.57 48.01 49.19 50.06 49.89 50.23 51.11 51.70 51.94 53.01 53.81 54.36 54.81 54.96 54.77 54.81 55.56 55.80 56.39 57.95 59.78 61.19 62.59 63.38 68.53 68.76 69.68 70.53
43.81 35.75 38.01 35.64 38.52 38.67 35.87 38.73 39.27 39.49 39.80 39.85 40.20 39.75 45.73 47.21 48.62 47.96 48.76 49.57 49.15 49.76 50.77 51.49 52.39 52.92 53.40 54.13 54.28 54.40 54.12 54.05 54.86 55.04 55.44 57.85 58.70 59.83 61.01 63.46 68.98 68.40 69.23 71.28
39.11 36.73 34.73 31.61 37.25 36.64 32.44 37.11 38.74 40.03 41.54 41.04 37.60 42.59 47.31 45.80 46.04 47.58 48.85 49.47 49.10 49.96 51.10 51.81 52.40 52.94 53.49 54.07 54.39 53.83 53.95 54.24 53.28 54.22 55.91 56.86 57.23 57.99 59.44 64.98 68.48 67.71 71.07 73.82
37.02 35.56 35.69 32.47 34.24 25.84 37.89 42.56 42.39 41.33 43.11 44.31 44.24 45.40 46.58 46.16 47.61 49.41 50.37 49.68 49.95 51.14 50.77 51.60 52.56 53.03 53.74 54.32 54.05 54.01 53.44 53.10 53.57 54.22 54.96 55.15 55.16 56.62 58.91 66.81 67.17 70.30 72.42 73.73
41.99 38.36 32.52 29.43 29.99 34.40 36.83 40.42 40.85 40.17 40.50 44.97 44.75 45.44 46.75 47.68 47.99 47.99 50.75 51.01 49.03 50.36 50.92 51.20 52.45 52.61 52.86 52.74 53.48 52.99 52.54 51.36 52.09 51.58 52.15 54.51 55.89 56.41 60.93 66.69 68.46 71.28 71.98 72.98
39.11 38.89 34.79 32.98 28.04 26.40 36.88 41.92 45.16 44.82 36.06 45.89 45.14 45.29 45.31 46.25 40.99 44.99 50.37 49.58 50.65 51.31 51.29 51.26 51.72 51.38 50.99 51.59 51.78 50.86 51.47 50.88 50.83 50.94 52.77 54.08 54.30 58.09 64.17 66.58 68.92 70.36 71.40 70.45
34.38 33.06 30.61 31.32 31.04 35.22 41.92 43.77 45.05 33.15 36.34 45.41 46.69 46.10 45.34 42.80 45.93 47.88 49.71 50.73 50.84 50.49 50.19 50.47 50.09 47.89 49.37 50.71 51.37 50.83 51.63 50.56 51.29 52.17 52.90 53.30 55.75 63.49 65.85 66.36 67.25 67.84 68.04 67.95
33.90 33.42 33.49 33.94 31.58 29.31 44.42 43.54 36.80 43.12 46.20 46.05 46.34 45.62 44.89 46.06 48.04 49.39 49.65 49.24 49.07 48.48 48.98 47.99 46.60 47.52 49.81 50.50 50.18 50.76 50.49 52.43 53.52 53.75 54.48 57.25 63.16 65.33 65.96 66.12 66.61 66.43 66.36 66.11
34.58 37.61 34.75 36.33 36.90 44.95 46.23 44.86 46.99 46.62 42.50 42.56 43.41 45.38 47.47 47.52 48.14 49.07 48.09 48.24 48.08 47.62 46.10 46.53 46.49 47.19 49.32 50.35 50.16 50.55 52.97 53.98 54.08 54.86 58.52 59.77 63.69 64.21 65.56 64.99 64.90 64.85 65.69 65.60
39.13 41.83 37.66 38.02 40.65 42.08 43.85 45.84 47.10 47.35 46.51 47.12 46.86 47.50 48.42 47.31 48.12 47.43 47.51 47.46 47.61 45.49 45.33 45.61 45.68 46.36 48.86 50.63 51.61 52.99 54.11 55.44 55.56 55.81 59.76 61.12 62.08 62.64 64.01 64.50 64.59 64.77 66.39 65.40
38.59 39.41 34.99 37.33 41.34 41.18 43.49 44.28 46.02 45.84 46.82 46.27 46.97 47.18 46.99 46.76 46.53 46.93 46.02 45.78 44.76 44.71 45.13 45.38 45.30 46.53 47.93 48.67 51.76 55.33 56.37 57.02 56.63 56.02 59.86 61.15 61.39 61.84 61.80 61.34 64.45 65.41 66.04 63.60
37.41 36.10 33.04 32.36 37.55 35.97 37.91 43.92 45.64 44.95 44.86 45.62 45.75 45.72 46.85 45.58 43.31 43.83 43.20 43.87 43.93 44.11 44.63 43.39 44.68 46.06 47.56 49.29 51.91 56.44 57.13 57.83 56.42 56.14 59.75 58.87 59.06 60.54 62.66 62.94 57.87 42.06 46.52 45.51

GFSCGP_sfc_wetblb_087.txt.gz
Wetbulb
49.65 45.88 43.69 45.47 47.11 46.15 45.53 44.31 44.03 46.25 48.04 46.33 46.52 47.26 49.09 51.47 51.48 50.79 51.60 52.66 53.44 53.36 56.37 56.11 58.22 58.97 59.97 62.50 63.30 64.57 64.81 67.21 67.52 67.35 66.19 68.68 70.08 73.05 72.88 73.22 75.32 74.65 74.81 74.62
46.29 43.33 46.58 47.47 47.02 45.58 44.95 43.44 43.44 45.91 47.38 46.85 46.27 45.96 48.41 50.11 50.89 51.15 51.21 51.95 52.69 53.72 54.16 55.68 57.90 58.81 58.82 60.01 62.39 63.18 64.38 66.15 65.28 65.33 67.05 68.21 67.37 68.26 71.64 73.89 74.75 74.61 74.88 74.82
43.62 45.71 47.49 44.98 44.91 43.47 44.17 43.14 43.64 43.48 46.22 47.39 45.68 43.85 46.00 48.67 50.33 50.71 50.99 51.96 52.95 53.66 54.06 55.19 57.01 58.01 58.65 59.22 59.90 60.69 62.79 65.97 66.55 66.33 65.86 68.22 68.77 68.77 68.43 67.69 72.89 75.22 74.86 74.89
44.93 47.48 44.43 44.25 43.18 44.58 41.63 46.24 44.94 43.71 42.52 38.74 46.00 37.66 44.73 46.80 47.29 48.98 50.03 50.61 51.58 53.62 54.72 55.76 56.25 57.37 58.17 58.51 59.54 60.40 61.93 63.96 65.32 66.36 65.01 68.38 64.54 63.68 65.87 68.20 71.23 73.57 75.45 75.67
43.69 43.92 43.44 42.68 43.73 45.64 42.96 46.07 44.82 44.34 42.40 42.05 41.92 39.61 42.92 47.14 45.70 47.09 49.18 51.26 51.79 53.91 54.98 55.36 55.65 57.02 57.43 58.29 58.97 60.47 62.49 63.03 64.29 65.71 65.70 64.24 65.83 64.06 65.63 66.10 71.04 74.07 75.88 76.41
45.65 48.41 46.04 45.35 46.10 45.65 46.78 44.51 44.19 43.86 42.21 36.16 40.79 40.25 40.93 44.19 45.76 47.66 49.70 50.46 51.97 52.81 54.13 55.49 56.45 56.94 57.60 58.36 59.10 60.33 61.45 62.14 63.15 64.09 64.45 65.17 64.87 65.08 63.91 65.26 65.85 67.38 69.98 73.27
44.50 44.83 46.93 46.88 43.70 46.34 45.24 42.10 35.77 35.02 35.31 35.06 43.07 40.35 42.42 46.01 47.64 48.76 48.76 50.31 51.74 52.92 54.06 54.10 55.14 55.67 56.60 57.47 58.85 59.13 60.07 60.45 62.05 62.44 62.84 63.71 65.02 66.14 65.44 66.07 64.42 65.96 66.28 68.96
39.78 37.66 44.45 46.76 44.97 42.80 42.60 42.38 35.50 29.26 31.14 34.48 42.05 36.83 41.43 47.47 48.98 48.72 48.77 49.71 50.82 51.65 53.47 53.38 54.56 55.45 56.08 57.11 58.24 59.00 59.10 59.44 61.05 61.70 62.39 63.35 63.97 63.42 64.70 66.68 66.52 65.22 66.03 68.26
40.17 39.51 46.11 46.58 47.53 46.01 42.68 39.20 43.98 37.81 38.49 35.81 38.98 42.16 46.03 46.99 46.64 47.31 48.18 49.94 50.98 52.41 53.78 53.90 54.68 55.02 55.70 57.15 58.20 58.71 59.09 59.57 60.18 60.79 61.90 62.88 63.49 64.74 64.79 68.11 69.21 66.05 68.29 68.61
44.14 38.35 44.56 45.96 46.78 46.57 44.26 45.51 37.48 38.84 29.93 28.73 35.17 36.98 37.82 43.70 45.27 47.03 47.80 49.11 50.82 52.18 53.10 54.01 54.44 55.45 56.36 57.36 58.28 58.97 59.19 59.20 59.89 60.56 60.91 61.42 62.72 63.45 65.10 66.82 67.81 69.73 69.74 70.25
45.82 42.68 41.44 44.89 42.39 41.85 41.62 40.67 41.48 40.33 38.29 30.83 30.13 35.45 45.32 45.38 47.03 47.36 48.67 49.51 51.19 52.33 53.02 53.92 55.04 55.61 56.09 56.71 56.74 58.02 58.52 59.03 59.27 59.60 60.23 61.22 61.37 62.22 64.21 65.62 66.79 67.45 68.81 70.05
45.99 42.88 37.57 40.11 45.07 46.21 45.43 42.38 41.65 34.61 34.46 37.40 36.29 36.00 46.39 47.59 48.21 48.85 48.80 50.89 52.06 52.87 53.44 54.19 54.96 55.30 55.54 55.79 56.12 56.61 57.71 57.77 57.91 58.45 58.56 58.67 61.05 61.93 63.68 64.21 65.64 67.80 68.72 70.72
45.76 40.67 35.28 37.37 41.82 44.49 41.73 42.92 42.63 41.96 41.04 36.48 32.54 35.81 47.91 48.54 48.45 49.78 50.22 50.54 51.73 52.89 53.31 54.21 54.70 54.83 55.02 55.44 55.85 55.83 56.40 56.79 57.41 57.49 57.23 58.18 60.68 61.89 63.05 64.41 66.07 65.75 67.81 69.10
46.63 41.68 38.18 33.49 36.70 38.78 36.15 40.75 41.81 40.33 35.45 36.16 37.17 38.74 41.59 43.75 46.61 48.92 49.91 50.94 51.86 52.36 52.99 53.47 54.06 54.49 55.19 55.56 55.86 56.21 56.61 57.21 57.26 56.96 56.24 56.94 58.44 61.75 61.98 63.52 65.17 65.19 66.73 67.53
44.54 37.28 39.39 39.99 41.28 40.96 40.26 39.91 40.62 39.53 39.61 35.70 39.08 39.41 42.70 45.44 46.75 48.53 50.18 50.46 51.01 51.28 52.52 52.84 53.26 54.16 55.10 55.51 56.03 56.49 56.90 57.36 57.70 56.63 55.92 56.70 58.26 60.61 61.14 62.37 63.40 65.21 66.46 66.71
44.45 37.44 39.12 37.46 40.39 39.77 38.05 39.98 40.38 40.69 40.69 40.43 39.87 39.56 45.78 47.61 48.50 48.08 48.60 50.10 50.18 51.03 52.03 52.59 53.24 54.03 54.55 55.23 55.61 56.27 56.58 56.97 57.42 56.38 55.45 55.56 55.79 57.53 60.11 61.30 62.70 64.21 64.78 67.00
40.30 38.39 36.16 33.15 38.82 38.91 34.87 38.77 39.80 40.54 42.32 41.37 36.76 41.63 45.86 45.02 46.35 48.72 50.17 50.86 50.65 51.03 51.87 52.83 53.78 54.12 54.68 55.59 56.74 56.41 56.88 57.36 56.34 55.59 55.30 54.89 54.73 55.56 57.38 58.78 61.38 62.83 64.67 67.48
38.91 38.49 38.14 34.00 35.27 27.59 39.83 44.70 43.74 41.91 43.21 44.71 44.22 45.43 46.45 46.94 49.31 49.44 51.42 50.60 50.28 51.11 52.66 52.91 52.98 53.64 54.57 55.35 56.51 56.92 56.73 56.25 55.26 54.58 54.32 54.39 54.19 54.63 56.72 58.55 58.59 62.31 64.76 67.93
42.65 39.58 34.59 30.75 32.17 36.36 39.07 42.12 40.85 40.69 39.82 45.16 42.91 46.42 46.24 47.04 47.86 47.80 50.73 51.05 51.89 51.63 53.25 53.26 54.13 53.57 53.77 54.23 54.85 54.37 54.34 54.37 53.72 52.57 52.39 54.33 54.41 53.23 53.89 55.66 58.64 60.59 64.10 67.93
40.93 42.03 35.19 33.88 28.92 27.19 37.91 42.80 47.04 46.21 36.65 46.70 46.63 46.09 45.16 45.82 40.41 45.48 51.26 52.19 52.24 52.51 53.34 53.16 53.05 52.82 52.59 52.71 54.08 52.39 51.66 51.90 50.51 52.12 53.42 52.91 52.50 52.76 53.91 55.51 56.41 59.08 65.35 68.12
34.48 34.69 33.15 33.33 31.78 35.82 42.20 45.06 46.86 33.82 37.42 45.94 45.92 46.53 46.59 44.64 46.79 49.63 51.39 51.29 51.71 52.33 53.40 53.15 52.18 51.28 51.68 51.78 51.79 49.53 50.47 50.33 52.34 53.73 54.76 53.68 53.17 53.51 55.84 55.79 56.52 61.75 66.81 68.83
36.14 35.08 33.74 34.82 31.61 29.90 44.24 43.98 37.60 43.43 47.31 47.50 47.19 46.50 45.61 46.76 47.71 48.73 49.25 48.81 50.60 52.10 51.90 51.78 50.88 50.65 50.84 50.73 50.54 49.85 49.89 52.68 53.71 54.43 55.09 55.57 55.60 56.82 58.44 57.78 58.30 64.23 67.69 68.41
35.93 39.27 37.27 37.14 38.30 45.71 46.18 45.66 48.28 47.22 45.04 46.12 46.06 46.26 46.38 46.05 46.88 47.66 47.54 48.73 50.36 50.63 50.70 51.24 50.50 49.59 49.69 49.94 51.30 48.35 50.24 52.70 53.02 52.78 53.13 54.92 56.36 57.26 56.71 56.36 61.59 65.31 65.66 66.20
41.05 44.23 38.92 39.31 42.38 43.42 45.55 47.70 47.37 48.00 46.86 48.07 48.51 46.64 46.07 44.83 46.02 46.67 47.64 48.72 49.08 49.44 48.92 49.34 48.61 47.24 47.38 49.13 50.44 51.11 51.32 53.28 52.80 52.25 52.59 52.02 52.04 52.61 55.61 65.49 64.85 65.09 65.12 64.81
39.31 41.64 37.54 39.22 42.12 42.49 45.51 46.09 47.08 47.02 48.06 46.76 47.67 46.90 45.82 46.04 45.49 45.64 45.63 46.32 46.34 46.13 46.42 47.15 47.21 47.46 47.81 48.75 49.92 51.76 52.09 51.94 52.93 53.79 55.78 60.27 61.33 61.98 61.49 59.33 63.86 65.33 65.71 65.62
41.28 36.87 33.78 33.65 40.15 37.26 38.15 44.25 47.07 45.34 44.53 44.93 44.48 44.63 44.22 43.52 41.96 42.44 42.19 43.88 44.50 44.30 45.44 46.65 46.69 47.17 47.65 47.76 49.54 52.04 53.07 54.06 55.31 55.88 56.06 58.81 59.95 60.15 60.66 57.62 53.28 42.98 47.41 46.49